Wind_Speed
47 48 49 50 51 52 53 54 55 56 57 58 60 60 61 61 62 62 63 64 65 65 65 66 68 69 69 69 69 70 71 72 73 74 74 75 76 78 81 83 84 85 86 85 84 83 82 80 80 80 81 82 83 84 85 84 80 75 73 72 73 73 72 72 72 70 70 72 73 73 74 73 73 72 71 70 69 68 67 66 66 66 65 64 64
48 49 50 51 52 53 54 54 55 56 57 59 59 60 60 61 62 63 64 64 64 65 66 67 68 68 69 69 70 71 72 73 74 75 76 76 78 80 83 84 84 85 85 84 83 82 81 80 80 81 82 83 84 85 84 79 75 72 72 72 72 73 72 72 72 72 71 70 72 72 72 72 71 70 69 68 66 65 64 64 64 64 64 63 63
49 50 51 52 53 53 54 55 56 57 58 59 59 60 61 62 63 64 64 64 64 65 66 67 68 68 69 70 71 72 73 74 75 76 77 78 80 83 84 84 84 85 84 83 82 81 80 80 80 82 83 85 85 84 79 74 71 71 71 72 72 72 72 72 73 73 72 70 70 70 70 69 69 67 67 66 64 63 62 62 62 62 63 64 63
50 51 52 53 53 54 55 57 58 59 59 60 61 61 62 63 64 64 64 64 64 65 67 67 68 69 70 71 72 73 74 74 75 77 79 80 82 84 85 84 84 84 83 82 81 80 80 80 82 83 84 85 84 79 74 70 70 70 71 71 71 71 72 73 73 73 72 70 69 69 68 67 66 65 65 64 63 63 62 62 61 61 62 63 64
50 52 53 54 56 57 58 59 60 61 61 62 62 62 63 64 64 63 63 63 65 66 67 68 69 70 72 73 73 73 74 75 76 78 80 82 83 84 84 84 83 83 82 81 80 80 81 82 83 84 84 84 80 74 70 69 69 70 70 70 71 71 71 72 72 72 71 70 68 67 66 65 64 64 64 64 63 63 62 62 62 63 63 64 65
52 54 56 57 59 60 61 61 61 61 62 61 62 62 63 63 63 63 63 64 65 66 68 69 71 72 73 73 73 74 74 76 78 80 82 83 84 84 83 83 82 82 81 80 80 81 82 82 83 84 83 80 75 70 68 69 69 70 70 70 70 71 71 71 71 70 69 68 67 65 64 63 63 63 63 63 63 64 63 62 62 63 65 65 66
56 58 60 60 60 60 60 60 60 60 60 61 62 62 62 63 63 63 64 64 66 67 69 71 72 73 73 73 74 74 76 77 79 81 82 83 83 83 82 82 81 81 81 80 81 81 82 82 83 83 81 76 71 68 68 69 69 70 70 70 70 70 70 70 69 68 67 67 66 64 63 62 62 62 62 63 63 64 65 64 63 63 64 65 66
59 60 59 58 57 57 57 57 58 59 60 61 62 62 62 63 63 64 64 65 67 69 71 73 73 73 73 73 74 76 77 79 81 82 82 83 83 82 81 81 81 80 80 81 81 81 82 82 83 81 77 71 68 67 68 69 69 69 69 69 70 69 69 69 68 67 66 65 64 63 62 62 62 62 62 63 63 64 65 67 65 64 64 65 65
56 57 56 55 54 55 56 57 59 60 61 62 62 62 63 64 64 64 65 66 69 71 73 73 73 73 73 74 75 77 78 80 81 82 82 82 81 80 80 80 80 80 80 80 81 81 81 82 81 78 72 68 67 67 68 69 69 69 69 69 69 69 68 67 66 65 65 65 64 63 63 63 63 63 63 63 64 64 65 66 65 65 65 65 64
55 56 56 56 56 57 58 59 60 62 62 62 62 63 64 64 64 65 67 68 70 72 73 73 73 73 74 75 77 78 79 80 81 82 82 81 80 79 79 79 79 79 80 80 81 81 81 81 78 74 69 67 67 67 68 69 69 69 68 68 68 67 67 66 65 65 65 64 64 64 64 64 64 64 64 64 65 65 65 65 65 65 65 64 63
56 57 58 58 59 59 60 61 63 63 63 63 63 64 64 65 66 67 69 70 71 72 73 73 73 74 75 77 78 79 80 80 81 81 81 80 79 79 79 78 79 79 80 80 81 81 80 78 74 70 68 67 67 68 68 69 69 68 68 67 67 67 66 65 64 64 65 64 64 64 64 64 64 64 65 65 65 66 65 66 67 66 66 65 63
56 57 58 60 61 61 62 63 63 62 62 62 64 65 67 68 69 69 70 71 72 73 73 73 74 75 76 77 78 79 80 81 81 81 80 79 79 79 78 78 78 79 79 80 81 80 78 75 71 69 68 67 67 68 68 69 68 68 67 67 67 66 65 65 64 64 65 64 64 64 65 65 64 65 66 65 65 66 66 66 67 67 66 66 66
56 57 58 60 61 62 62 62 61 61 62 64 66 68 70 70 70 70 71 71 72 73 73 74 75 76 77 78 79 80 80 81 80 80 79 79 79 78 78 78 78 78 80 80 80 79 76 72 69 68 68 68 68 68 68 68 68 67 67 66 66 66 65 64 64 64 64 64 64 64 65 65 65 65 66 66 66 67 67 66 67 67 66 67 67
57 57 58 60 62 62 62 62 61 63 64 66 69 71 71 71 71 71 71 71 72 73 74 75 76 76 77 78 79 80 80 80 80 80 79 79 78 78 77 77 78 79 80 80 79 76 73 70 68 68 68 68 68 68 68 68 67 66 66 65 65 65 64 63 64 64 65 64 64 65 66 66 65 65 66 67 67 68 68 68 68 68 67 68 67
56 56 58 61 64 63 63 63 64 65 67 70 71 72 71 71 71 71 71 72 73 74 75 75 76 76 77 78 79 79 79 79 79 79 79 78 78 77 77 77 78 79 79 79 77 74 71 69 68 67 68 68 69 69 68 67 67 66 65 64 64 63 63 62 63 64 65 65 65 65 66 66 66 66 66 67 68 68 69 69 70 70 69 70 66
56 57 60 63 64 64 65 66 67 68 70 72 72 71 71 71 71 71 72 72 73 74 75 75 76 77 78 79 79 78 78 79 79 78 78 78 77 77 77 77 78 78 78 76 74 71 69 68 67 67 67 68 69 68 68 67 66 65 64 63 63 63 62 62 64 65 64 65 65 66 66 66 67 67 67 68 68 68 69 69 70 71 71 71 66
57 59 61 64 65 66 68 69 69 71 72 73 72 72 72 72 71 72 72 73 74 74 75 75 76 77 78 78 78 78 78 78 78 78 77 77 77 77 77 78 78 77 75 73 71 69 68 67 67 67 68 68 68 68 67 66 65 64 63 63 62 62 62 63 64 64 64 65 66 67 66 67 67 67 67 68 68 68 69 68 69 71 71 72 66
58 61 65 68 69 70 71 71 71 73 74 74 74 73 72 72 72 72 73 73 74 74 75 76 77 77 77 77 77 77 77 77 77 77 77 77 78 78 77 78 77 75 72 70 69 68 67 67 67 67 68 68 67 67 66 65 64 63 62 62 62 62 62 64 65 64 64 66 66 66 66 66 66 66 67 67 68 68 69 69 69 70 71 72 67
61 66 70 72 73 73 72 72 73 75 76 75 74 73 72 72 72 72 73 74 74 75 76 76 76 76 76 76 76 76 76 76 77 77 77 78 78 78 77 77 75 72 69 68 67 67 66 67 67 68 67 67 66 66 65 64 63 62 62 62 62 62 63 64 64 64 65 66 67 66 66 65 66 66 66 67 67 68 69 69 69 70 71 72 68
65 70 72 74 74 73 73 73 74 75 74 73 72 71 71 72 72 73 73 74 75 75 76 76 76 76 76 75 75 75 75 75 76 77 77 78 78 77 77 75 72 69 68 67 66 66 66 66 67 67 67 66 66 65 64 64 63 63 63 62 62 63 64 64 64 64 66 67 66 65 64 64 64 65 65 66 66 67 68 68 69 70 71 72 67
69 72 74 74 73 73 73 73 73 72 71 70 70 71 71 72 73 73 74 74 75 75 75 75 75 75 75 75 74 74 74 74 75 76 77 77 77 77 75 72 69 68 68 67 66 65 66 66 66 66 67 67 66 65 64 64 64 63 63 63 63 64 64 63 64 66 67 66 65 63 63 63 63 64 65 65 66 66 67 67 68 70 71 72 66
72 74 74 73 73 73 73 73 71 70 70 70 71 71 72 73 73 74 74 75 75 75 75 75 74 74 74 74 73 73 74 74 75 76 77 77 76 74 72 70 68 68 67 66 66 66 66 66 66 66 67 67 67 66 65 65 65 64 64 64 64 64 64 63 64 65 65 64 63 62 62 63 63 64 64 65 65 66 66 66 67 69 71 72 66
72 73 74 74 74 73 73 71 70 70 71 71 72 72 73 74 74 74 75 75 75 75 74 74 74 73 73 73 73 73 74 74 75 76 76 75 74 72 71 69 68 68 67 66 66 65 66 66 66 67 67 68 67 66 66 66 65 64 64 65 65 65 64 64 64 64 63 63 63 62 62 63 63 63 64 64 64 65 65 65 66 68 70 70 65
72 73 73 73 73 72 71 70 71 71 72 72 73 73 73 74 74 75 75 74 74 74 74 73 73 73 73 73 73 73 74 75 75 75 74 73 72 71 71 69 69 68 67 66 65 65 65 66 66 67 68 67 67 67 66 65 65 64 65 66 66 65 64 64 64 63 63 63 63 63 62 63 63 63 63 64 64 64 64 64 66 67 69 69 63
73 73 73 72 71 71 71 71 72 72 72 73 73 73 74 74 74 74 74 74 74 73 73 73 73 73 73 73 73 73 74 75 74 73 72 71 71 71 71 70 70 69 68 66 65 65 66 66 67 68 68 68 68 67 66 65 64 65 66 66 66 66 65 64 64 64 63 63 63 63 63 63 63 63 63 63 63 64 63 63 65 67 68 68 61
72 72 71 71 71 71 71 72 72 72 73 73 73 73 73 73 73 73 73 73 73 73 73 73 73 74 74 74 74 74 74 74 72 71 70 70 71 71 71 71 71 71 70 68 67 66 66 67 68 69 69 69 68 67 66 65 65 66 67 67 67 67 66 65 65 64 64 64 63 63 63 63 63 63 63 63 63 64 63 63 64 66 68 67 59
70 70 70 71 71 71 72 72 72 73 73 73 72 72 72 72 72 72 72 72 72 73 73 74 74 75 74 74 74 74 73 72 70 70 70 71 71 71 71 71 71 71 71 70 69 68 68 68 69 70 70 70 69 68 67 66 66 66 67 68 68 68 67 66 66 65 65 64 64 63 63 63 62 63 63 63 63 64 64 63 64 66 67 66 57
69 70 70 71 71 71 71 72 72 72 71 71 71 71 71 71 71 71 72 72 73 74 74 75 75 75 75 74 74 72 71 70 69 70 71 71 71 71 72 71 71 71 71 70 71 71 70 70 70 71 71 70 70 70 69 68 67 67 67 68 69 69 68 67 66 66 66 65 64 63 63 63 63 63 63 63 63 64 64 64 65 66 67 65 56
69 70 70 70 71 71 71 71 70 70 70 70 70 70 70 71 72 72 73 73 74 74 75 75 74 74 73 73 72 71 70 69 70 71 72 72 72 72 71 71 71 70 71 71 72 72 72 72 72 71 71 71 71 71 71 70 69 68 68 69 70 69 69 68 68 68 67 65 64 63 63 63 63 63 63 62 63 63 63 64 65 66 66 64 55
69 69 69 70 70 69 69 69 69 69 69 70 70 71 71 72 73 73 73 74 74 74 74 74 73 72 71 70 70 70 70 71 72 73 73 73 73 72 71 70 70 70 71 72 72 72 73 73 73 72 72 72 72 71 71 70 70 69 69 70 70 70 69 69 68 68 67 65 64 64 63 63 63 63 63 62 62 62 63 64 65 66 66 62 52
68 68 68 68 68 68 68 68 69 69 70 71 71 72 73 73 74 74 74 74 74 73 72 71 71 70 70 70 71 72 73 74 75 75 74 73 72 71 70 70 70 70 71 72 73 73 73 73 73 73 73 73 72 71 71 71 70 70 70 71 71 71 70 70 69 67 66 65 65 65 65 64 64 64 64 63 61 61 62 64 65 65 65 60 50
67 67 67 67 68 68 69 70 70 71 72 72 73 74 74 74 74 74 74 73 72 71 70 70 70 70 71 72 74 75 76 76 76 76 74 73 71 70 70 70 70 71 72 74 74 74 73 74 74 74 74 74 73 72 72 72 72 72 73 73 73 72 71 70 69 67 66 65 65 66 65 65 65 64 64 62 61 61 62 63 64 64 63 58 48
66 67 67 68 69 69 70 71 72 72 73 73 74 74 73 73 72 71 71 70 69 69 70 70 72 73 74 76 77 77 77 77 75 74 73 71 71 70 70 71 71 72 74 75 75 74 74 75 75 75 75 75 74 74 73 74 74 75 75 74 73 72 70 69 69 68 67 66 66 66 66 65 65 64 63 62 61 62 62 63 64 64 62 55 46
67 67 68 69 69 70 71 71 72 72 72 72 72 71 70 69 68 68 68 69 69 70 71 73 74 75 76 77 78 77 77 76 74 73 71 71 70 71 71 72 72 73 75 76 77 77 77 77 77 77 77 76 76 76 76 76 76 76 75 74 72 71 70 69 69 68 67 66 66 65 65 65 64 63 62 62 62 62 63 63 63 63 59 51 43
68 68 68 69 69 69 69 69 69 69 69 68 68 68 68 68 68 68 69 70 71 72 73 75 75 76 76 77 77 76 75 74 73 72 72 71 71 72 73 73 74 74 75 77 78 78 78 79 78 78 78 78 78 78 78 78 78 77 75 73 71 70 69 68 68 67 66 65 64 64 64 64 64 64 63 63 63 63 63 64 63 61 56 48 41
67 67 67 67 67 66 66 66 66 66 66 66 66 66 67 67 68 69 69 70 71 72 74 75 75 76 76 76 75 74 73 73 72 72 72 72 73 74 74 74 75 76 77 78 79 80 80 80 80 80 81 81 81 81 80 79 78 76 75 73 72 71 70 69 68 68 67 65 65 64 64 65 65 65 65 64 64 63 63 63 61 58 52 44 40
66 66 65 65 65 65 65 64 64 64 64 64 65 66 66 67 69 70 70 71 72 73 74 74 75 75 75 74 73 72 72 72 72 72 73 73 74 75 76 76 77 77 78 79 81 81 82 82 82 83 83 84 83 82 80 79 77 76 76 75 74 73 72 71 71 70 69 68 67 67 67 67 67 67 66 64 64 63 63 61 58 54 47 41 38
64 64 63 63 62 62 62 62 62 62 63 64 66 67 68 69 70 71 72 73 74 74 75 75 75 74 74 73 72 72 71 72 72 73 74 75 76 76 77 78 79 80 80 81 82 83 83 83 84 85 85 84 83 82 80 80 79 79 79 78 78 77 75 75 74 73 73 72 71 70 69 68 68 67 66 64 64 63 61 58 54 48 43 39 37
60 59 59 59 58 59 60 61 62 64 66 68 69 70 70 71 71 72 73 73 74 74 74 74 74 73 73 72 72 72 72 73 74 75 76 77 78 78 79 80 81 82 82 83 83 84 84 85 85 85 84 83 83 82 82 82 82 81 81 80 79 78 77 76 76 76 75 74 73 72 70 69 68 67 65 64 63 60 57 53 48 43 39 36 36
56 56 56 57 58 60 62 64 66 68 70 71 71 72 72 72 72 72 73 73 73 73 73 73 73 72 72 72 73 73 74 74 75 77 78 78 79 81 81 82 82 83 83 84 84 85 85 85 85 84 84 83 82 81 81 81 80 79 78 77 76 75 74 73 73 72 71 70 69 69 67 66 65 63 62 60 58 55 51 47 43 39 36 34 34
55 56 58 59 61 64 66 68 70 72 73 74 74 74 74 74 73 72 72 72 72 72 72 72 72 72 73 73 74 75 76 77 77 78 79 80 80 81 82 82 82 83 83 84 84 85 84 84 83 82 81 80 79 78 77 76 75 75 73 72 71 70 69 68 68 67 65 64 62 61 59 58 56 55 54 53 51 48 44 41 38 35 33 32 33
58 59 61 64 66 68 70 72 74 75 76 77 77 76 75 74 73 72 72 71 71 72 72 73 73 74 74 75 76 77 77 78 78 79 80 80 81 81 81 81 82 82 82 83 82 82 81 80 79 78 76 75 74 73 72 72 71 70 68 67 66 65 64 63 62 61 60 58 56 54 51 49 47 46 46 45 43 41 39 37 34 32 31 31 32
62 64 66 68 71 73 75 76 77 78 78 78 77 76 75 74 73 72 72 72 72 72 73 73 74 75 75 76 77 77 78 78 79 80 80 80 80 80 81 81 81 81 80 80 78 77 75 74 72 71 71 70 69 68 68 67 66 66 65 64 62 60 59 58 57 56 54 52 50 48 45 43 41 41 41 39 37 36 34 32 31 29 29 30 30
66 68 71 73 75 77 78 79 79 79 78 77 76 75 74 73 73 72 72 73 73 73 73 74 75 75 76 76 77 77 78 78 79 79 79 79 79 79 80 80 79 78 76 75 73 71 69 68 66 65 65 65 64 64 64 64 64 64 63 61 59 56 54 53 52 50 48 46 44 42 40 38 37 37 36 34 33 32 31 29 28 28 28 29 29
70 72 74 76 77 78 79 79 79 78 77 76 75 75 74 73 73 73 73 73 74 74 74 74 75 76 76 77 77 77 77 77 77 77 77 77 77 77 77 76 74 72 70 68 66 65 63 62 61 60 60 60 61 61 62 62 61 59 57 54 52 50 48 47 45 44 41 40 38 37 36 35 34 33 31 30 29 28 27 26 26 26 27 27 27
74 75 76 77 78 78 78 78 78 78 77 76 75 74 73 73 73 73 73 73 73 74 74 74 75 75 75 75 75 75 75 74 74 75 75 75 74 73 72 70 67 65 63 62 60 59 57 57 56 56 56 57 58 58 57 54 51 48 45 43 41 41 40 39 38 37 35 34 33 33 32 31 31 29 28 27 26 25 24 24 24 25 25 25 25
75 76 77 77 78 78 78 79 79 78 77 76 74 73 72 71 71 71 72 72 73 73 73 73 73 73 73 72 72 72 72 72 72 71 71 70 69 67 65 62 60 59 58 56 54 53 52 52 52 51 52 53 53 51 47 42 39 36 34 32 31 31 31 31 31 30 29 29 29 29 28 27 26 25 25 24 23 22 22 22 23 23 23 23 22
76 77 77 78 79 79 79 79 78 77 75 73 71 70 69 69 70 70 71 71 71 71 71 70 70 70 69 69 69 69 69 68 68 67 66 64 62 60 58 56 54 53 51 50 49 48 48 47 47 46 47 47 45 41 36 32 30 27 24 22 22 22 23 24 24 24 24 25 25 25 24 23 23 23 22 21 20 20 20 21 21 21 21 21 20
76 77 78 79 80 79 78 76 74 72 70 69 68 67 68 68 69 69 69 69 68 68 67 67 67 67 66 66 66 66 65 65 64 62 60 57 55 53 52 50 48 46 45 44 44 43 42 42 42 41 41 40 37 32 28 25 23 20 17 15 16 16 18 19 19 20 20 20 21 21 21 21 21 20 19 18 18 18 18 18 19 19 18 18 19
78 79 79 78 76 74 72 70 69 68 67 67 67 67 67 67 67 67 66 66 65 65 65 64 64 64 64 64 64 63 62 60 58 56 53 51 49 47 45 43 41 40 39 38 38 37 37 36 36 35 34 33 31 27 23 20 18 16 13 12 12 12 13 14 15 16 16 17 17 18 19 19 18 18 17 16 15 15 16 16 16 17 17 17 17
79 78 76 72 69 67 66 65 65 65 65 65 66 66 66 65 65 64 64 63 63 63 62 62 62 62 62 62 61 60 58 55 53 50 47 45 42 40 38 36 34 33 32 32 32 32 32 31 30 29 28 27 25 22 19 16 14 12 10 9 8 9 9 10 11 12 13 14 16 17 17 17 16 15 15 14 13 14 14 15 15 15 16 16 16
Wind_Direction
265 267 269 270 271 273 274 275 276 278 279 279 280 282 283 285 286 288 290 292 294 295 296 296 296 297 297 298 299 299 300 301 302 303 305 306 308 308 308 309 309 309 308 308 307 307 306 306 306 305 305 305 305 306 307 307 307 306 306 306 306 307 307 308 308 309 308 307 306 306 306 305 305 304 302 301 299 298 297 296 295 294 293 291 289
267 268 270 271 272 273 274 275 276 277 278 279 280 282 284 285 287 289 291 293 294 294 295 295 296 297 297 298 299 299 301 302 303 304 305 307 308 308 308 308 308 308 307 307 306 306 306 306 305 305 305 305 306 307 308 308 307 306 306 307 308 308 309 309 310 310 310 309 308 308 308 307 306 305 303 302 300 299 298 297 296 296 295 293 291
268 269 270 271 272 273 275 276 276 277 278 280 282 283 285 286 288 290 291 292 293 293 294 295 296 297 298 298 299 300 301 302 303 304 305 307 308 308 308 308 307 306 306 306 306 306 306 305 305 305 305 306 307 308 308 307 306 306 307 308 309 309 310 310 310 311 311 311 310 309 309 308 306 305 303 302 301 300 299 298 297 297 296 294 293
270 270 271 272 273 274 275 276 277 279 281 282 283 284 285 287 288 289 291 292 293 294 295 296 296 297 298 298 300 301 302 302 304 305 306 307 307 307 307 306 306 306 306 306 306 306 305 305 305 306 307 308 308 308 307 306 306 307 308 309 310 310 311 311 311 312 312 312 312 311 309 308 306 305 303 302 302 302 301 300 300 299 297 296 294
271 272 273 273 275 276 277 278 280 281 283 283 284 284 285 286 287 289 291 293 294 294 295 296 296 297 298 299 300 301 302 303 304 305 306 306 306 306 306 305 305 305 305 306 306 305 305 306 306 307 308 308 308 307 306 306 307 308 309 310 310 311 311 311 312 312 313 313 313 311 310 308 307 306 305 304 304 303 303 302 302 301 299 297 296
273 274 275 276 277 278 278 280 281 282 282 283 283 284 285 287 289 291 293 294 294 295 296 296 297 298 299 299 300 301 302 303 304 305 305 306 305 305 305 305 305 305 306 306 306 305 306 306 307 308 308 308 307 306 306 307 308 309 309 310 311 311 311 312 312 313 313 314 313 312 310 309 308 307 306 306 306 304 303 303 303 302 300 298 296
274 275 277 277 278 278 279 280 281 281 282 283 284 285 287 289 292 293 294 294 295 295 296 297 298 298 298 299 300 301 302 303 303 304 305 305 305 304 304 304 305 305 305 305 305 305 306 307 307 308 308 306 305 305 306 307 308 309 310 310 311 311 312 312 312 313 313 313 312 311 310 309 308 308 308 308 308 308 307 305 303 301 300 298 296
275 276 276 277 278 279 280 281 282 283 284 285 286 288 290 292 293 294 294 294 295 295 296 297 297 297 298 299 300 301 301 302 303 304 304 304 304 304 304 304 305 305 305 305 305 306 306 307 307 307 306 305 304 305 306 307 308 309 310 310 311 311 312 312 313 313 313 313 312 311 310 310 309 310 310 310 310 310 309 308 307 305 303 302 301
276 277 278 280 282 283 284 284 285 285 285 287 288 290 292 293 294 294 294 294 295 296 296 296 296 297 298 299 300 301 301 302 303 303 303 303 304 304 304 304 304 304 304 305 305 306 306 307 307 305 304 303 304 305 306 307 308 309 309 310 310 311 312 312 313 313 313 312 312 311 311 311 311 311 312 312 312 312 312 312 312 311 309 307 305
279 280 282 284 285 286 285 285 285 285 287 288 291 292 293 294 294 293 293 294 295 295 294 295 296 297 298 299 300 301 301 302 302 302 303 303 303 303 303 304 304 304 304 304 305 305 306 306 305 303 302 302 303 304 306 307 308 308 309 309 310 311 312 312 312 313 312 312 312 311 311 312 312 313 313 314 315 316 317 317 316 315 312 310 308
282 282 283 285 286 285 285 285 285 287 289 290 292 293 292 292 292 292 293 293 293 293 294 295 296 296 297 299 300 301 301 301 302 302 302 302 302 303 303 303 303 303 303 304 305 305 305 305 303 301 301 302 303 304 306 306 307 308 308 309 311 311 312 312 312 312 312 313 312 312 312 312 313 314 315 317 318 319 320 320 319 317 314 312 311
283 282 282 284 286 286 286 286 287 288 289 289 290 290 290 290 291 291 292 292 293 293 294 294 295 296 298 299 300 300 300 301 301 301 301 301 302 302 302 302 302 303 303 304 304 305 304 302 300 300 301 302 303 304 305 306 307 308 309 310 311 312 312 312 312 312 313 313 312 312 311 313 314 315 316 318 319 319 320 320 320 319 317 317 316
283 281 282 284 286 286 287 288 287 287 287 286 286 287 288 289 290 291 292 292 292 292 293 294 296 297 298 299 299 300 300 300 300 300 300 301 301 301 301 301 302 302 302 303 303 304 302 300 299 299 301 302 303 304 305 306 307 308 309 310 311 312 312 312 312 313 313 313 312 311 311 312 314 316 317 318 318 319 320 320 321 321 320 321 321
283 282 282 283 284 285 286 287 286 285 284 284 284 285 287 289 290 291 291 291 291 292 293 295 297 297 298 298 299 299 299 299 299 299 299 300 300 300 300 301 301 301 302 302 303 302 300 298 298 299 301 302 303 304 304 305 307 308 309 310 311 312 312 312 311 312 313 312 311 310 310 311 313 315 316 317 318 319 320 321 322 323 323 324 324
283 282 280 281 283 285 285 284 283 282 282 282 284 286 288 290 290 290 289 289 290 292 294 296 296 296 297 297 298 298 298 297 298 298 298 298 299 299 300 300 300 301 301 301 301 299 298 297 298 299 300 301 302 303 304 305 307 308 310 310 311 311 311 310 310 310 311 311 310 310 309 309 311 313 315 316 317 319 320 322 324 325 325 326 325
279 278 279 282 285 285 283 282 281 280 281 282 285 287 289 290 289 288 288 289 291 293 294 295 295 295 296 297 297 297 296 296 296 297 297 297 298 298 299 299 300 300 300 300 299 297 296 297 298 299 300 301 302 303 305 306 307 309 309 309 309 309 309 307 307 308 309 309 309 308 308 308 309 312 314 316 317 318 320 322 324 325 326 327 325
280 281 283 284 285 283 281 280 279 279 281 284 287 288 288 287 287 287 289 291 292 293 294 294 294 295 295 296 296 295 295 295 295 296 296 296 297 297 298 299 299 299 299 297 296 295 296 297 297 299 300 301 303 304 305 306 307 308 308 308 308 307 306 304 305 306 307 307 307 307 307 307 309 311 313 315 316 317 319 321 323 325 326 326 324
281 281 281 280 280 280 279 277 277 279 283 286 287 286 285 285 286 288 290 291 292 292 293 293 294 294 294 294 294 294 294 294 294 295 295 295 296 297 297 298 298 298 296 295 294 295 295 296 297 299 301 302 303 304 304 306 307 307 306 306 306 305 302 302 303 304 304 304 305 306 306 306 308 310 311 313 315 317 318 320 322 324 325 326 323
276 275 276 276 277 277 276 275 277 280 283 284 283 283 284 285 288 289 290 291 291 291 292 292 292 292 292 293 293 293 293 294 294 294 294 295 295 296 296 297 297 296 294 293 294 294 295 297 298 300 301 302 302 303 304 305 305 305 304 304 304 302 301 302 302 301 301 303 304 304 305 305 307 308 310 312 314 315 317 319 321 323 325 326 323
273 273 274 275 276 275 274 275 277 279 280 280 281 282 285 287 289 289 290 290 290 291 291 291 291 291 292 292 292 293 293 293 293 293 294 294 294 295 296 296 295 294 293 293 294 295 296 298 299 301 301 301 302 303 304 304 304 304 303 303 302 301 301 302 301 299 300 302 303 303 304 305 306 307 309 311 313 314 316 318 320 322 324 326 323
272 272 274 274 274 273 273 274 276 277 279 280 283 285 287 288 289 289 289 289 290 290 290 290 290 291 291 292 292 292 292 292 292 293 293 293 294 294 295 295 293 292 292 293 294 296 297 299 300 301 301 301 302 303 303 303 303 303 303 302 301 301 302 302 300 299 300 302 302 303 303 304 305 307 308 310 311 313 315 317 319 321 324 325 323
272 273 274 273 272 272 273 275 277 279 281 284 285 287 288 288 288 289 289 289 289 289 289 290 290 290 291 291 292 292 292 291 292 292 292 293 293 294 294 293 292 292 293 294 296 297 299 300 300 300 300 302 303 304 304 303 303 303 302 301 301 302 302 301 300 300 301 301 301 302 303 304 305 306 307 309 310 313 315 316 318 321 323 325 322
272 272 271 270 271 272 274 277 279 281 284 285 286 287 287 288 288 288 288 288 289 289 289 289 290 290 290 291 291 291 291 291 291 292 292 293 293 293 293 292 292 292 294 295 297 298 299 300 300 300 301 302 303 304 303 303 302 301 300 300 300 301 301 301 300 300 301 301 301 302 302 303 304 305 306 308 310 312 314 315 317 320 322 324 321
268 268 268 270 272 274 277 279 281 283 285 286 286 287 287 287 288 288 288 288 289 289 289 289 289 290 290 290 290 290 290 290 291 292 292 292 292 292 293 293 293 294 295 296 298 298 298 299 299 300 301 302 303 303 303 302 301 300 299 299 299 300 300 300 300 300 300 300 301 301 302 302 303 304 305 307 309 311 313 314 316 319 322 323 320
266 268 270 273 275 277 280 281 283 284 285 286 287 287 287 287 288 288 288 288 289 289 289 288 289 289 289 290 290 290 290 290 291 292 292 292 292 293 293 294 295 295 296 297 297 297 298 298 299 299 300 301 302 302 302 301 299 298 298 298 298 299 299 300 299 300 300 300 300 300 301 301 302 303 305 307 308 310 312 313 316 318 321 322 319
269 272 274 276 278 280 282 283 284 285 286 287 287 287 287 287 288 288 288 288 288 288 288 288 288 289 289 290 289 290 290 291 291 291 292 292 293 294 294 295 296 297 297 297 297 296 297 297 298 299 300 301 301 301 301 300 298 297 297 297 297 298 299 299 299 299 300 299 299 299 299 300 301 303 304 306 307 309 311 312 315 317 320 321 318
273 275 277 279 281 282 284 285 286 286 286 287 287 287 287 287 287 288 288 287 287 288 288 288 289 289 289 289 290 290 290 291 291 291 292 293 294 295 295 296 297 297 297 297 297 296 296 297 298 299 300 301 301 301 300 298 297 296 296 296 296 297 298 298 298 299 298 298 298 298 298 299 301 302 303 305 306 308 310 311 314 316 319 320 316
277 279 280 282 283 284 285 286 286 286 287 287 287 287 287 287 287 287 287 287 287 288 288 288 289 289 289 289 290 290 290 291 291 292 293 294 295 295 295 296 296 297 297 297 297 297 298 298 299 300 301 301 300 300 299 298 297 296 295 295 295 296 297 297 297 297 296 296 297 297 298 299 300 301 303 304 305 307 308 310 313 316 318 318 314
280 281 283 284 284 285 286 286 287 287 287 287 287 287 287 287 286 286 287 287 287 288 288 289 289 289 289 290 290 290 291 292 292 293 293 294 294 294 294 295 295 296 296 296 297 298 299 300 301 301 301 300 300 299 299 298 297 296 295 294 294 295 295 295 295 295 295 296 296 297 297 298 299 300 302 303 304 305 307 309 312 315 317 317 312
283 284 284 285 286 286 287 287 287 287 287 286 286 286 286 286 286 286 287 287 288 288 288 288 289 289 289 290 290 291 291 292 292 293 293 293 293 293 294 294 294 295 295 296 296 298 299 300 300 301 300 299 299 298 298 297 296 295 294 293 293 293 294 293 293 293 294 295 296 296 296 297 298 299 300 302 303 304 305 308 310 313 315 315 309
285 285 286 286 286 287 286 286 286 285 285 285 285 285 285 286 286 286 287 287 287 288 288 289 289 290 290 291 291 291 292 292 292 292 293 292 293 293 293 293 294 294 295 295 296 298 299 299 300 299 299 298 297 296 295 295 294 293 292 291 291 292 292 292 292 293 293 294 294 294 295 296 296 298 299 300 301 302 304 307 309 312 314 313 306
286 286 286 286 286 285 285 285 284 284 284 285 285 285 286 286 286 287 287 288 289 289 290 290 290 291 291 291 291 291 292 292 292 292 292 292 292 292 292 293 294 294 295 295 297 298 299 298 298 298 297 296 296 295 294 293 292 291 290 290 290 291 291 291 291 291 292 292 292 292 293 294 295 296 297 298 299 301 303 305 308 310 312 310 303
285 285 284 284 284 284 284 284 285 285 285 285 286 286 287 287 288 289 289 290 290 290 291 291 291 291 291 291 291 291 291 292 292 292 292 292 292 292 293 293 294 294 295 296 297 298 298 297 297 297 296 295 295 294 293 292 291 291 290 290 290 290 290 289 289 289 289 289 290 290 291 292 293 294 295 296 298 300 302 304 306 308 310 307 299
284 283 283 283 284 284 285 285 285 286 286 286 287 288 288 289 290 290 291 291 291 291 290 290 290 290 290 291 291 291 291 291 292 292 291 291 292 292 293 294 295 295 296 297 297 298 297 297 297 296 295 294 293 293 292 292 291 291 290 290 289 288 287 287 287 287 287 287 288 289 290 290 291 292 293 295 297 299 300 302 304 307 307 302 295
283 283 283 284 284 285 285 285 285 286 286 287 288 289 289 290 290 290 290 290 290 290 290 290 289 290 290 290 290 291 291 291 291 291 291 291 292 292 293 295 295 296 297 297 297 297 297 297 296 295 294 293 293 293 292 292 291 290 290 289 288 286 286 285 285 285 285 286 286 287 287 288 289 290 291 293 295 297 299 301 303 304 303 298 291
283 283 283 283 284 284 284 284 285 285 286 287 288 289 289 289 290 290 290 290 289 289 289 289 289 289 289 289 290 290 290 291 291 291 292 293 294 294 295 296 296 297 297 297 297 296 296 296 295 295 294 294 294 293 293 292 291 290 289 287 286 285 284 284 283 283 283 283 284 284 285 285 287 288 290 292 293 295 296 298 301 301 299 293 289
282 282 282 282 283 283 284 284 285 286 287 288 289 289 289 289 290 289 289 289 289 288 288 288 288 288 289 289 289 290 290 291 292 293 294 294 295 296 296 297 297 297 297 297 296 296 296 295 295 295 295 295 294 293 293 291 290 289 288 287 286 285 284 283 283 282 282 282 282 282 282 283 284 286 288 290 291 292 294 296 298 297 294 289 288
281 282 282 283 283 284 285 286 287 288 289 290 291 291 291 291 290 289 289 288 288 287 287 287 288 289 289 290 290 291 291 292 293 294 295 295 296 296 297 297 297 297 297 296 296 296 296 296 295 295 295 294 294 293 292 290 289 288 287 286 285 284 283 282 281 281 280 280 280 280 280 281 282 284 285 287 288 290 292 294 294 292 289 286 288
282 282 283 284 285 286 287 289 290 291 293 293 294 293 293 292 291 289 289 288 288 288 288 288 289 289 290 290 291 291 292 293 294 294 295 295 296 296 296 296 296 296 296 296 296 296 296 296 295 295 294 294 293 292 290 289 288 287 286 285 284 283 282 281 279 279 278 278 278 278 278 279 280 282 283 285 286 288 289 290 289 287 285 284 287
282 283 284 286 288 289 291 292 293 294 295 295 295 295 294 293 292 291 289 289 288 289 289 289 290 290 291 291 292 292 293 294 294 295 295 296 296 296 296 296 296 296 296 296 296 296 296 295 295 294 294 293 292 290 289 288 287 286 285 284 283 282 281 279 278 278 277 277 277 277 277 278 279 280 281 283 284 285 286 286 284 283 281 283 287
285 286 288 290 291 292 293 294 295 295 296 296 296 295 295 294 293 291 290 289 289 289 290 290 291 291 291 292 292 293 293 293 294 294 294 295 295 295 295 295 296 296 296 296 296 296 296 295 295 294 293 292 291 290 289 288 287 286 285 284 282 281 279 278 277 276 276 276 276 276 277 278 278 279 279 280 281 282 281 280 279 278 279 282 286
288 290 291 292 293 294 294 295 295 295 295 295 295 295 294 293 292 291 290 290 290 290 290 290 291 291 291 292 292 292 293 293 293 293 293 294 294 294 294 295 295 295 296 296 296 296 296 295 295 294 294 293 292 291 290 289 288 287 285 283 282 280 278 277 276 275 274 274 274 275 276 276 276 276 276 276 277 277 276 275 275 275 278 282 286
292 293 293 294 294 294 294 294 295 295 295 295 294 294 293 292 291 291 290 290 289 289 290 290 290 290 291 291 292 292 292 292 293 293 293 294 294 294 295 295 296 296 296 297 297 296 296 296 295 295 294 294 293 292 291 290 289 287 285 283 281 279 277 275 274 272 272 272 272 273 273 273 271 271 271 272 272 271 271 271 271 274 278 283 286
293 293 293 293 293 293 293 294 294 294 294 293 293 292 291 291 290 290 289 289 289 289 289 290 290 290 291 291 291 291 292 292 293 293 294 294 295 295 296 296 297 297 298 298 298 297 297 297 296 296 295 295 294 294 292 291 289 286 284 281 279 277 275 273 271 270 269 269 269 270 269 268 266 265 266 266 266 265 265 266 269 274 280 283 284
292 292 292 292 293 293 293 293 293 293 293 292 291 291 290 290 289 289 289 289 289 289 289 290 290 290 291 291 291 291 292 293 293 294 294 295 296 297 297 298 299 299 299 299 299 299 299 298 298 298 298 298 297 296 294 292 290 287 283 280 276 273 271 269 268 267 266 265 265 265 265 263 261 260 260 259 259 259 261 263 268 275 280 282 283
291 292 292 293 293 293 293 293 292 292 291 291 290 290 290 289 289 289 289 289 289 290 290 290 290 290 290 291 291 292 293 294 294 295 296 297 297 298 299 299 300 300 300 300 300 300 300 300 301 302 301 301 300 299 296 293 290 287 283 279 274 270 267 265 263 262 260 259 259 259 259 258 257 255 252 252 253 254 257 263 270 276 280 280 282
292 293 293 294 294 293 293 292 292 291 291 290 290 290 290 289 289 289 289 290 290 290 290 290 290 290 291 292 292 293 294 295 296 297 297 298 299 300 300 301 301 301 302 302 302 302 303 304 305 305 305 304 303 302 298 295 293 290 285 280 273 267 263 260 258 255 253 252 252 253 253 252 249 246 244 245 248 251 257 266 272 276 278 279 282
294 295 295 295 294 294 293 292 291 291 290 290 289 289 289 289 289 290 290 290 290 290 290 291 291 292 292 293 293 294 295 296 297 298 299 300 300 301 301 302 302 303 304 305 305 306 306 307 307 308 309 310 309 306 302 299 297 293 288 281 272 264 258 254 250 247 245 245 245 247 246 242 238 236 237 240 245 252 261 268 273 275 277 280 284
296 296 296 295 295 294 293 292 291 290 289 289 289 289 289 289 290 290 291 291 291 291 291 292 292 293 293 294 295 295 296 298 299 299 300 301 301 301 302 303 304 306 307 308 308 309 309 309 310 312 314 317 318 314 308 303 301 297 290 280 268 257 249 244 240 238 237 237 238 236 233 229 228 229 233 238 246 256 264 268 271 274 278 282 286
297 297 296 295 294 293 292 292 291 290 289 289 289 289 290 290 291 291 291 291 292 292 292 293 293 293 294 295 296 297 298 299 300 300 300 300 300 301 303 305 306 308 309 311 311 312 312 313 315 317 321 325 327 324 317 309 303 297 288 275 260 249 240 234 230 228 227 226 224 221 219 219 221 226 231 240 250 259 263 266 270 275 280 284 288
297 297 296 294 293 293 293 292 292 291 290 290 290 290 290 291 291 291 291 292 292 292 293 293 294 295 296 297 298 298 299 299 299 299 299 298 300 302 304 306 308 310 313 316 318 318 318 319 321 323 326 330 334 335 331 322 312 302 290 273 254 238 226 219 215 212 211 210 209 208 210 214 219 226 234 243 251 255 260 265 271 276 281 286 291
Height
5759 5758 5758 5757 5756 5755 5753 5752 5751 5750 5748 5746 5744 5742 5740 5738 5735 5733 5731 5729 5726 5724 5721 5718 5715 5712 5709 5707 5704 5701 5698 5694 5691 5687 5683 5680 5677 5673 5670 5666 5661 5657 5652 5647 5642 5638 5633 5628 5623 5619 5614 5610 5607 5602 5598 5592 5587 5583 5578 5575 5571 5567 5565 5562 5560 5561 5557 5548 5541 5535 5529 5526 5521 5514 5511 5509 5504 5500 5496 5491 5487 5484 5482 5480 5477
5753 5752 5751 5750 5749 5748 5747 5746 5744 5743 5741 5739 5737 5735 5733 5731 5728 5726 5724 5722 5719 5716 5713 5710 5707 5705 5702 5699 5696 5692 5689 5686 5682 5678 5675 5672 5669 5665 5660 5656 5652 5647 5642 5637 5633 5628 5624 5619 5615 5610 5606 5602 5598 5593 5588 5583 5578 5574 5570 5566 5562 5557 5554 5551 5548 5547 5547 5541 5532 5525 5520 5515 5511 5506 5501 5498 5495 5492 5489 5484 5480 5477 5473 5470 5467
5747 5746 5745 5743 5742 5741 5740 5739 5737 5736 5734 5732 5730 5728 5726 5723 5721 5719 5717 5714 5712 5709 5706 5703 5700 5697 5694 5691 5688 5684 5680 5677 5673 5669 5666 5663 5660 5655 5650 5646 5642 5637 5632 5628 5623 5619 5614 5610 5606 5601 5597 5592 5588 5584 5579 5574 5570 5565 5561 5557 5553 5548 5544 5540 5537 5535 5534 5531 5524 5517 5512 5506 5502 5497 5492 5488 5486 5483 5481 5478 5474 5470 5466 5461 5458
5741 5740 5739 5737 5736 5735 5734 5732 5731 5729 5727 5725 5723 5721 5719 5717 5714 5712 5710 5707 5704 5701 5698 5695 5692 5689 5686 5683 5679 5676 5672 5668 5665 5661 5658 5654 5650 5646 5641 5637 5632 5627 5623 5618 5613 5609 5605 5601 5597 5592 5587 5582 5578 5574 5570 5566 5562 5557 5553 5548 5544 5540 5535 5530 5527 5524 5521 5519 5515 5508 5503 5498 5493 5489 5485 5481 5478 5474 5471 5469 5466 5463 5458 5453 5448
5735 5734 5733 5732 5731 5729 5728 5726 5725 5723 5721 5719 5716 5714 5712 5710 5707 5705 5702 5699 5696 5693 5690 5688 5685 5681 5678 5674 5671 5667 5664 5660 5656 5653 5649 5645 5641 5637 5632 5627 5622 5618 5613 5609 5604 5599 5595 5591 5587 5582 5577 5572 5568 5565 5561 5557 5553 5549 5544 5540 5535 5531 5527 5522 5518 5514 5510 5507 5504 5499 5494 5489 5485 5481 5476 5473 5471 5467 5464 5462 5458 5454 5450 5445 5440
5730 5728 5727 5726 5725 5723 5721 5720 5718 5716 5714 5711 5709 5707 5705 5702 5700 5697 5694 5691 5688 5686 5683 5680 5676 5673 5669 5666 5663 5659 5656 5652 5648 5644 5640 5636 5632 5627 5622 5617 5612 5608 5604 5599 5595 5590 5586 5582 5578 5573 5568 5563 5559 5556 5552 5549 5545 5541 5536 5532 5528 5523 5518 5514 5509 5505 5501 5497 5494 5490 5486 5481 5477 5473 5469 5464 5461 5458 5456 5456 5452 5446 5440 5436 5432
5724 5722 5721 5720 5718 5716 5715 5713 5711 5709 5706 5704 5702 5699 5697 5694 5691 5689 5686 5684 5681 5678 5675 5671 5668 5664 5661 5658 5655 5651 5647 5643 5639 5635 5631 5627 5622 5617 5612 5607 5603 5599 5595 5590 5586 5581 5577 5573 5568 5563 5559 5555 5551 5548 5544 5541 5536 5532 5528 5524 5520 5516 5511 5506 5501 5497 5494 5490 5485 5482 5478 5473 5469 5466 5462 5457 5453 5449 5444 5444 5445 5441 5433 5427 5422
5717 5715 5714 5713 5711 5710 5708 5706 5704 5701 5698 5696 5694 5691 5689 5686 5683 5681 5678 5676 5673 5669 5666 5662 5659 5656 5653 5650 5646 5643 5639 5634 5630 5626 5622 5618 5613 5608 5603 5598 5594 5589 5585 5581 5577 5573 5569 5564 5559 5555 5550 5547 5544 5541 5537 5533 5529 5525 5521 5517 5513 5509 5504 5499 5494 5490 5486 5482 5478 5474 5471 5467 5462 5458 5455 5450 5446 5443 5436 5431 5431 5429 5423 5419 5412
5710 5708 5707 5706 5704 5702 5700 5698 5695 5693 5690 5688 5686 5683 5680 5677 5675 5673 5670 5668 5664 5661 5657 5654 5651 5648 5645 5642 5638 5634 5630 5625 5621 5617 5613 5609 5604 5599 5594 5589 5585 5581 5576 5572 5568 5564 5560 5556 5551 5546 5543 5540 5537 5534 5530 5526 5522 5518 5514 5510 5506 5501 5497 5492 5487 5483 5479 5475 5471 5467 5463 5460 5455 5452 5448 5443 5438 5435 5431 5424 5420 5417 5412 5408 5404
5702 5700 5699 5697 5695 5694 5692 5689 5687 5685 5682 5680 5677 5674 5672 5669 5667 5665 5662 5659 5656 5652 5649 5645 5643 5640 5637 5633 5629 5625 5621 5616 5612 5608 5604 5600 5595 5591 5586 5581 5576 5572 5568 5564 5560 5556 5552 5547 5542 5538 5535 5533 5529 5526 5522 5518 5515 5511 5507 5504 5499 5495 5490 5485 5481 5476 5472 5468 5464 5460 5456 5452 5448 5444 5440 5436 5430 5426 5422 5416 5412 5408 5402 5398 5395
5694 5692 5691 5689 5687 5686 5683 5681 5679 5676 5674 5671 5668 5666 5663 5661 5659 5657 5654 5651 5647 5644 5640 5637 5634 5631 5628 5625 5621 5616 5611 5607 5603 5599 5595 5591 5587 5582 5578 5573 5568 5563 5559 5555 5551 5547 5543 5538 5534 5530 5528 5525 5522 5519 5515 5511 5508 5504 5500 5496 5492 5488 5483 5479 5474 5470 5465 5462 5457 5452 5448 5445 5441 5436 5431 5428 5423 5418 5414 5409 5403 5399 5393 5388 5384
5686 5684 5682 5680 5679 5677 5675 5672 5670 5668 5665 5662 5660 5658 5655 5653 5651 5649 5646 5642 5638 5635 5632 5629 5626 5623 5619 5616 5611 5607 5602 5597 5594 5590 5586 5582 5578 5575 5570 5566 5561 5556 5551 5547 5542 5538 5534 5530 5525 5522 5520 5518 5514 5511 5507 5504 5500 5497 5493 5489 5484 5480 5475 5471 5467 5463 5459 5455 5450 5445 5440 5437 5434 5429 5423 5420 5416 5412 5408 5403 5397 5391 5385 5378 5373
5677 5676 5674 5672 5671 5669 5666 5664 5662 5659 5657 5654 5652 5650 5648 5646 5643 5640 5637 5633 5629 5626 5623 5620 5617 5614 5610 5606 5602 5597 5592 5588 5584 5581 5577 5574 5570 5567 5562 5558 5553 5548 5543 5539 5534 5530 5526 5522 5518 5515 5512 5510 5507 5503 5500 5496 5493 5489 5485 5481 5477 5472 5468 5463 5458 5455 5451 5447 5443 5438 5432 5429 5427 5422 5417 5413 5410 5406 5401 5397 5391 5384 5379 5372 5364
5668 5667 5666 5664 5663 5660 5658 5656 5654 5651 5649 5647 5645 5642 5640 5638 5635 5632 5628 5624 5621 5618 5615 5612 5609 5605 5601 5596 5592 5588 5583 5579 5575 5572 5568 5565 5562 5559 5555 5550 5545 5540 5535 5531 5526 5522 5518 5514 5511 5508 5505 5502 5499 5496 5493 5489 5486 5482 5478 5474 5470 5465 5461 5456 5451 5447 5444 5440 5436 5431 5426 5421 5419 5416 5412 5407 5403 5399 5394 5389 5384 5377 5372 5366 5358
5661 5659 5658 5657 5655 5653 5650 5648 5645 5643 5641 5639 5637 5635 5632 5629 5626 5623 5619 5616 5613 5610 5607 5604 5600 5596 5591 5587 5583 5579 5575 5570 5566 5563 5560 5556 5554 5551 5547 5542 5537 5532 5527 5522 5519 5515 5510 5507 5504 5501 5497 5494 5490 5488 5486 5482 5479 5476 5471 5467 5463 5459 5454 5449 5445 5441 5438 5433 5428 5424 5420 5415 5412 5409 5406 5401 5397 5392 5387 5381 5375 5369 5364 5360 5354
5653 5652 5651 5649 5646 5644 5641 5639 5637 5636 5633 5631 5629 5627 5623 5621 5617 5614 5611 5608 5605 5601 5598 5595 5591 5586 5582 5578 5575 5571 5566 5560 5557 5554 5551 5547 5545 5542 5539 5534 5530 5525 5519 5515 5511 5507 5503 5500 5497 5494 5490 5486 5482 5480 5477 5474 5472 5469 5464 5460 5456 5452 5448 5443 5439 5435 5432 5427 5422 5418 5413 5409 5405 5402 5398 5394 5390 5386 5382 5376 5370 5363 5358 5354 5350
5646 5644 5643 5640 5637 5635 5633 5631 5630 5627 5625 5623 5621 5618 5615 5611 5608 5605 5602 5600 5596 5593 5589 5585 5582 5577 5573 5569 5566 5562 5557 5552 5548 5545 5542 5539 5535 5533 5530 5526 5522 5517 5512 5507 5503 5500 5496 5492 5489 5487 5483 5479 5475 5472 5469 5466 5464 5461 5457 5454 5450 5447 5442 5437 5433 5430 5426 5421 5416 5411 5407 5403 5399 5395 5391 5387 5383 5380 5376 5372 5366 5359 5353 5348 5344
5638 5636 5634 5632 5629 5628 5626 5624 5622 5619 5617 5615 5612 5609 5606 5603 5600 5597 5594 5591 5587 5584 5580 5576 5572 5569 5565 5561 5557 5553 5549 5543 5539 5536 5533 5529 5526 5523 5520 5517 5513 5509 5504 5500 5497 5493 5490 5486 5482 5479 5476 5472 5468 5465 5461 5458 5456 5454 5450 5447 5444 5441 5436 5431 5428 5425 5420 5415 5410 5406 5401 5397 5393 5389 5386 5381 5377 5373 5369 5365 5360 5354 5349 5342 5337
5630 5628 5626 5624 5622 5621 5618 5616 5613 5611 5608 5606 5603 5600 5597 5594 5591 5588 5585 5581 5578 5574 5570 5567 5563 5560 5556 5552 5548 5544 5541 5535 5530 5527 5524 5520 5516 5514 5511 5508 5505 5501 5496 5492 5490 5486 5483 5478 5474 5471 5468 5464 5461 5458 5454 5451 5449 5446 5443 5440 5437 5434 5429 5425 5422 5419 5414 5409 5405 5400 5396 5391 5387 5383 5380 5375 5371 5367 5363 5359 5354 5349 5344 5337 5330
5621 5619 5618 5616 5614 5612 5610 5607 5604 5601 5599 5596 5594 5591 5589 5585 5582 5579 5575 5572 5568 5564 5561 5557 5554 5550 5547 5543 5539 5536 5532 5527 5522 5517 5514 5510 5506 5503 5501 5499 5496 5492 5488 5485 5483 5479 5475 5471 5467 5463 5459 5456 5454 5451 5447 5444 5441 5439 5435 5432 5429 5426 5422 5419 5415 5411 5407 5403 5399 5395 5390 5386 5382 5378 5374 5370 5366 5362 5358 5353 5348 5343 5338 5333 5326
5613 5611 5609 5607 5605 5603 5601 5598 5595 5592 5589 5587 5585 5582 5579 5576 5572 5569 5565 5562 5559 5555 5552 5548 5545 5542 5538 5534 5531 5527 5523 5519 5514 5508 5504 5500 5496 5493 5492 5490 5486 5482 5480 5478 5475 5472 5467 5463 5459 5455 5450 5448 5446 5443 5440 5436 5433 5431 5428 5424 5421 5418 5415 5412 5408 5404 5401 5397 5393 5389 5384 5380 5376 5372 5368 5365 5361 5357 5352 5347 5343 5337 5332 5327 5322
5605 5603 5601 5598 5596 5594 5591 5588 5585 5583 5580 5578 5576 5573 5569 5566 5563 5559 5555 5552 5549 5546 5542 5539 5536 5533 5529 5526 5523 5519 5514 5510 5505 5500 5494 5490 5486 5484 5483 5481 5477 5474 5472 5470 5467 5464 5459 5455 5452 5447 5442 5439 5437 5434 5431 5428 5425 5422 5419 5416 5412 5410 5407 5405 5401 5397 5394 5390 5386 5382 5378 5374 5370 5367 5363 5359 5355 5351 5347 5343 5337 5332 5327 5321 5315
5596 5594 5592 5589 5586 5584 5581 5579 5576 5574 5571 5569 5566 5563 5559 5556 5553 5549 5546 5543 5540 5536 5533 5530 5527 5524 5521 5517 5514 5510 5505 5500 5496 5491 5486 5481 5477 5474 5473 5471 5468 5465 5464 5462 5459 5455 5451 5447 5444 5440 5435 5432 5429 5426 5422 5419 5416 5413 5410 5407 5404 5401 5399 5396 5393 5390 5387 5383 5379 5376 5372 5368 5364 5361 5357 5353 5349 5345 5342 5338 5333 5328 5323 5317 5310
5587 5584 5582 5579 5577 5574 5572 5570 5567 5564 5562 5559 5556 5553 5549 5546 5543 5540 5536 5533 5530 5527 5524 5520 5517 5515 5512 5508 5505 5500 5495 5490 5486 5482 5478 5473 5468 5465 5463 5461 5458 5456 5456 5455 5451 5446 5443 5439 5436 5432 5428 5425 5422 5418 5415 5411 5408 5404 5401 5398 5395 5393 5391 5388 5385 5382 5379 5376 5372 5369 5365 5361 5358 5355 5351 5347 5344 5340 5337 5333 5328 5323 5318 5313 5307
5577 5574 5572 5570 5567 5565 5563 5560 5557 5555 5552 5549 5546 5543 5540 5537 5533 5530 5527 5524 5521 5518 5514 5511 5508 5505 5502 5499 5495 5491 5486 5482 5478 5474 5470 5465 5460 5456 5453 5451 5448 5446 5446 5446 5443 5439 5434 5431 5427 5424 5421 5418 5415 5411 5407 5403 5399 5395 5392 5389 5386 5384 5383 5380 5377 5374 5372 5368 5365 5362 5358 5354 5351 5348 5345 5341 5337 5334 5331 5328 5323 5317 5313 5309 5303
5567 5565 5563 5560 5558 5556 5553 5550 5548 5545 5542 5539 5537 5533 5530 5527 5524 5521 5518 5514 5511 5508 5505 5501 5497 5494 5491 5488 5485 5481 5477 5473 5470 5466 5461 5456 5452 5448 5444 5442 5439 5436 5434 5434 5433 5431 5427 5423 5419 5416 5413 5410 5407 5404 5401 5396 5391 5387 5383 5380 5377 5375 5374 5371 5369 5366 5364 5360 5358 5355 5351 5347 5344 5341 5338 5335 5331 5327 5325 5323 5318 5313 5308 5304 5300
5558 5555 5553 5551 5549 5546 5544 5541 5538 5535 5532 5529 5527 5523 5520 5517 5514 5511 5508 5504 5501 5498 5494 5490 5487 5484 5480 5478 5474 5471 5468 5465 5462 5457 5453 5448 5444 5440 5436 5433 5430 5426 5424 5422 5420 5419 5419 5416 5412 5408 5405 5401 5397 5395 5392 5389 5385 5381 5376 5371 5368 5366 5365 5363 5360 5358 5355 5353 5350 5347 5343 5340 5337 5334 5331 5328 5324 5321 5318 5316 5313 5309 5303 5298 5295
5548 5546 5543 5541 5539 5536 5534 5531 5528 5525 5522 5519 5517 5513 5510 5508 5504 5501 5498 5494 5490 5487 5483 5480 5477 5473 5470 5467 5464 5461 5459 5456 5452 5448 5444 5440 5437 5433 5429 5425 5421 5418 5414 5411 5409 5407 5407 5405 5403 5399 5395 5392 5388 5385 5382 5379 5376 5372 5368 5363 5359 5357 5355 5354 5352 5349 5347 5345 5342 5340 5336 5333 5330 5327 5324 5321 5318 5314 5311 5309 5306 5303 5298 5293 5290
5538 5535 5533 5531 5528 5526 5523 5521 5518 5515 5512 5509 5506 5503 5500 5497 5494 5490 5487 5483 5480 5477 5473 5470 5467 5463 5460 5458 5454 5452 5450 5448 5443 5439 5436 5433 5429 5425 5421 5417 5413 5410 5406 5402 5398 5397 5396 5394 5391 5388 5385 5381 5378 5374 5371 5368 5365 5361 5358 5353 5350 5348 5346 5345 5343 5340 5338 5336 5334 5331 5328 5325 5322 5320 5317 5315 5311 5307 5304 5302 5299 5296 5292 5287 5284
5527 5525 5523 5520 5517 5515 5513 5510 5508 5505 5502 5499 5496 5492 5489 5486 5483 5480 5476 5473 5470 5466 5463 5460 5457 5453 5451 5448 5445 5442 5440 5438 5434 5430 5427 5424 5420 5416 5413 5409 5405 5401 5397 5392 5389 5388 5386 5384 5381 5378 5374 5370 5367 5364 5360 5357 5353 5350 5347 5343 5340 5339 5337 5336 5333 5331 5328 5327 5325 5322 5320 5317 5315 5312 5310 5308 5305 5301 5298 5295 5292 5290 5286 5282 5279
5516 5514 5512 5509 5507 5504 5502 5499 5497 5494 5491 5488 5485 5482 5479 5475 5472 5469 5466 5463 5459 5456 5453 5450 5447 5444 5441 5438 5435 5432 5430 5427 5424 5420 5417 5414 5411 5407 5404 5400 5397 5393 5388 5383 5380 5379 5377 5373 5371 5368 5364 5360 5358 5355 5351 5347 5343 5340 5337 5334 5331 5330 5328 5326 5324 5321 5320 5318 5315 5313 5311 5309 5307 5305 5303 5301 5299 5295 5292 5288 5285 5283 5280 5276 5273
5506 5503 5501 5498 5496 5493 5491 5488 5486 5483 5480 5477 5474 5471 5468 5465 5461 5458 5455 5452 5449 5445 5442 5439 5437 5434 5431 5428 5425 5422 5419 5416 5413 5409 5406 5403 5401 5398 5395 5391 5388 5384 5378 5374 5372 5370 5367 5363 5360 5358 5354 5351 5348 5345 5341 5338 5334 5330 5327 5324 5322 5320 5318 5316 5313 5312 5311 5309 5307 5305 5303 5301 5299 5297 5295 5293 5291 5289 5286 5283 5279 5276 5274 5270 5267
5495 5493 5490 5488 5485 5483 5480 5478 5475 5472 5469 5466 5463 5460 5457 5454 5450 5447 5444 5442 5439 5435 5432 5429 5426 5424 5421 5417 5414 5412 5409 5406 5403 5400 5396 5393 5390 5387 5385 5382 5379 5374 5369 5364 5362 5361 5358 5353 5350 5347 5343 5340 5338 5335 5331 5328 5325 5320 5317 5314 5312 5310 5308 5306 5304 5303 5302 5300 5298 5296 5294 5292 5290 5289 5287 5285 5284 5282 5279 5276 5273 5270 5268 5264 5262
5485 5483 5480 5478 5475 5472 5470 5467 5464 5461 5459 5456 5453 5450 5446 5444 5441 5437 5434 5432 5429 5426 5423 5420 5417 5414 5411 5407 5404 5401 5398 5395 5392 5389 5387 5384 5380 5377 5374 5372 5368 5364 5358 5353 5350 5348 5346 5343 5340 5337 5333 5329 5327 5324 5321 5318 5314 5310 5307 5305 5302 5301 5298 5296 5295 5294 5292 5290 5289 5287 5285 5283 5282 5281 5279 5278 5276 5274 5272 5269 5267 5264 5261 5258 5256
5475 5472 5470 5467 5465 5462 5460 5457 5454 5451 5449 5446 5443 5440 5437 5434 5432 5429 5426 5423 5420 5416 5413 5410 5407 5405 5402 5398 5394 5391 5388 5385 5382 5378 5376 5373 5370 5367 5364 5361 5358 5354 5349 5344 5339 5335 5333 5330 5328 5325 5322 5318 5315 5312 5309 5306 5303 5299 5296 5294 5292 5290 5289 5287 5285 5284 5282 5281 5280 5278 5276 5275 5274 5273 5272 5270 5269 5266 5264 5262 5260 5258 5255 5252 5251
5465 5462 5460 5457 5455 5452 5450 5447 5445 5442 5440 5437 5434 5432 5429 5426 5423 5420 5417 5414 5411 5407 5404 5400 5396 5393 5391 5388 5385 5381 5378 5375 5372 5368 5365 5361 5358 5355 5352 5349 5346 5343 5338 5334 5329 5325 5322 5319 5315 5312 5309 5305 5302 5299 5296 5293 5290 5287 5285 5282 5281 5280 5278 5277 5275 5274 5273 5272 5271 5269 5268 5266 5265 5264 5264 5263 5261 5259 5257 5255 5253 5251 5248 5246 5245
5455 5452 5450 5448 5445 5443 5440 5438 5436 5433 5431 5428 5425 5423 5420 5417 5414 5411 5408 5405 5401 5398 5394 5390 5386 5383 5379 5377 5374 5371 5368 5365 5361 5358 5354 5350 5347 5343 5339 5336 5334 5331 5327 5323 5318 5314 5311 5307 5303 5299 5296 5292 5288 5285 5283 5280 5277 5275 5272 5270 5269 5268 5267 5266 5264 5263 5262 5261 5260 5259 5258 5258 5257 5256 5255 5255 5253 5251 5250 5249 5247 5245 5242 5241 5240
5445 5443 5441 5438 5436 5434 5431 5429 5427 5424 5421 5419 5416 5413 5410 5407 5404 5401 5397 5394 5391 5387 5384 5380 5377 5373 5369 5366 5364 5361 5358 5355 5351 5347 5343 5340 5336 5332 5328 5325 5321 5318 5315 5311 5307 5302 5299 5295 5291 5287 5283 5279 5275 5272 5269 5266 5264 5261 5259 5257 5256 5255 5255 5254 5252 5251 5250 5250 5249 5249 5249 5248 5248 5247 5247 5247 5246 5244 5243 5242 5240 5238 5237 5235 5234
5436 5434 5432 5430 5428 5425 5423 5420 5418 5415 5412 5409 5406 5403 5400 5396 5393 5390 5386 5383 5380 5376 5373 5370 5367 5364 5360 5356 5353 5351 5348 5345 5341 5337 5333 5329 5325 5321 5318 5314 5310 5306 5303 5299 5295 5290 5287 5283 5279 5274 5270 5267 5263 5259 5256 5252 5249 5247 5245 5244 5242 5242 5241 5240 5239 5238 5238 5238 5238 5238 5239 5239 5239 5239 5239 5238 5237 5236 5236 5235 5233 5232 5231 5230 5229
5428 5426 5423 5421 5419 5416 5414 5411 5408 5405 5402 5399 5395 5392 5389 5385 5382 5378 5375 5372 5369 5365 5362 5359 5356 5353 5350 5347 5343 5341 5338 5334 5331 5327 5323 5319 5315 5310 5306 5302 5298 5295 5291 5287 5282 5278 5274 5270 5266 5261 5257 5253 5249 5246 5242 5238 5235 5233 5231 5230 5229 5228 5227 5226 5226 5225 5226 5226 5227 5227 5228 5229 5230 5230 5230 5230 5229 5229 5229 5228 5227 5226 5226 5225 5224
5419 5417 5415 5413 5410 5407 5404 5401 5398 5395 5391 5388 5384 5381 5377 5374 5371 5367 5364 5361 5357 5354 5351 5348 5345 5342 5340 5336 5333 5330 5327 5324 5320 5317 5313 5309 5305 5300 5296 5291 5287 5283 5279 5274 5270 5265 5261 5257 5252 5248 5243 5239 5235 5232 5228 5225 5222 5219 5218 5216 5216 5215 5214 5213 5213 5213 5214 5215 5216 5217 5219 5220 5221 5221 5221 5221 5221 5221 5222 5221 5221 5221 5221 5220 5219
5410 5408 5405 5403 5400 5397 5394 5390 5387 5384 5380 5376 5373 5369 5366 5362 5359 5356 5353 5350 5347 5344 5341 5338 5335 5332 5329 5326 5322 5319 5316 5313 5310 5306 5302 5298 5294 5290 5286 5281 5277 5273 5268 5264 5259 5254 5249 5244 5239 5234 5230 5226 5222 5218 5215 5212 5209 5206 5205 5203 5203 5202 5202 5202 5201 5202 5203 5205 5207 5209 5210 5211 5212 5213 5213 5213 5214 5215 5215 5215 5215 5216 5216 5215 5214
5401 5398 5395 5392 5389 5386 5383 5379 5376 5372 5368 5365 5361 5358 5354 5351 5348 5345 5342 5339 5336 5333 5330 5327 5324 5321 5318 5315 5312 5309 5305 5302 5298 5294 5291 5287 5283 5279 5275 5270 5266 5261 5257 5252 5247 5242 5237 5233 5227 5222 5218 5214 5210 5206 5202 5199 5196 5194 5192 5191 5190 5190 5190 5190 5191 5192 5194 5196 5199 5200 5202 5203 5204 5205 5206 5207 5208 5208 5209 5210 5210 5211 5211 5210 5209
5391 5388 5385 5382 5379 5375 5371 5368 5364 5360 5357 5353 5349 5346 5343 5340 5337 5334 5331 5328 5325 5323 5320 5317 5314 5310 5307 5304 5301 5298 5294 5291 5287 5283 5279 5275 5271 5267 5263 5258 5254 5249 5245 5240 5235 5230 5226 5222 5217 5212 5207 5203 5199 5195 5191 5187 5184 5181 5179 5179 5178 5179 5179 5180 5180 5182 5185 5188 5191 5193 5194 5196 5197 5198 5199 5201 5202 5203 5204 5205 5206 5206 5206 5205 5204
5381 5378 5375 5371 5367 5363 5360 5356 5352 5348 5345 5341 5338 5335 5332 5329 5326 5323 5320 5317 5315 5312 5309 5306 5303 5299 5296 5293 5290 5286 5283 5279 5276 5272 5268 5264 5260 5256 5251 5247 5242 5238 5233 5229 5224 5220 5215 5211 5207 5202 5197 5192 5188 5184 5179 5175 5172 5169 5167 5166 5167 5167 5169 5170 5172 5175 5178 5181 5183 5185 5187 5189 5190 5192 5193 5195 5196 5198 5199 5200 5201 5202 5202 5201 5200
5370 5367 5364 5360 5356 5352 5348 5344 5340 5337 5333 5330 5326 5323 5320 5318 5315 5312 5309 5306 5304 5301 5298 5295 5292 5288 5285 5282 5279 5276 5272 5269 5265 5261 5257 5253 5249 5245 5241 5236 5232 5228 5224 5220 5215 5211 5206 5202 5198 5193 5188 5183 5178 5173 5168 5164 5161 5158 5157 5156 5157 5158 5160 5162 5165 5168 5171 5174 5176 5179 5181 5183 5185 5187 5188 5190 5192 5194 5195 5196 5197 5197 5197 5196 5196
5359 5356 5352 5348 5345 5341 5337 5333 5329 5325 5322 5319 5315 5312 5310 5307 5304 5301 5299 5296 5293 5290 5287 5284 5281 5278 5275 5272 5268 5265 5262 5259 5255 5251 5247 5243 5239 5235 5231 5227 5223 5219 5215 5211 5207 5203 5199 5194 5190 5185 5180 5175 5169 5164 5159 5156 5153 5151 5150 5149 5150 5151 5153 5156 5159 5162 5165 5168 5171 5173 5176 5178 5180 5182 5184 5186 5188 5190 5191 5192 5193 5193 5193 5192 5192
5348 5344 5340 5336 5332 5329 5325 5321 5317 5314 5311 5308 5305 5302 5299 5296 5294 5291 5288 5285 5282 5279 5276 5273 5271 5268 5265 5262 5259 5256 5252 5249 5245 5242 5238 5234 5230 5226 5223 5219 5216 5212 5208 5204 5200 5196 5192 5187 5183 5179 5174 5168 5162 5157 5153 5150 5148 5146 5145 5145 5146 5147 5149 5151 5154 5157 5160 5163 5166 5169 5172 5174 5176 5178 5180 5182 5185 5186 5188 5188 5189 5189 5189 5189 5188
5336 5332 5328 5324 5320 5316 5313 5309 5306 5302 5299 5297 5294 5292 5289 5286 5283 5280 5278 5275 5272 5269 5266 5263 5261 5258 5255 5252 5249 5246 5243 5240 5236 5233 5229 5226 5222 5219 5216 5213 5209 5206 5202 5198 5194 5190 5186 5182 5178 5174 5169 5163 5158 5153 5149 5147 5145 5144 5143 5143 5143 5144 5146 5148 5150 5153 5157 5160 5163 5166 5168 5170 5172 5175 5177 5179 5181 5183 5184 5185 5185 5185 5185 5185 5185
5324 5320 5316 5312 5308 5305 5301 5298 5295 5292 5289 5286 5284 5281 5279 5276 5273 5270 5268 5265 5262 5259 5257 5254 5251 5248 5245 5243 5240 5237 5234 5231 5228 5225 5222 5219 5216 5213 5210 5207 5204 5201 5198 5194 5190 5186 5182 5178 5174 5170 5165 5161 5155 5151 5147 5145 5144 5142 5142 5142 5142 5143 5145 5146 5149 5152 5155 5158 5160 5163 5166 5168 5170 5172 5175 5177 5179 5180 5181 5181 5182 5182 5182 5182 5182
5312 5308 5304 5301 5297 5294 5291 5288 5285 5282 5279 5276 5274 5271 5269 5266 5264 5261 5258 5256 5253 5250 5247 5245 5242 5239 5236 5234 5231 5228 5225 5223 5220 5217 5215 5212 5210 5207 5205 5203 5200 5197 5194 5190 5186 5182 5178 5175 5171 5167 5163 5159 5155 5151 5148 5145 5144 5143 5142 5142 5142 5143 5145 5146 5149 5151 5154 5156 5159 5161 5164 5166 5168 5170 5173 5175 5176 5177 5178 5178 5179 5179 5179 5179 5178